Find Starlink 31393

NORAD ID: 59252 Int'l Des: 2024-049 Owner: SPXS Country: US Constellation: starlink operational
LEOCIRCULAR

Current View

Loading 3D Globe...

About Starlink 31393

Starlink 31393 (NORAD 59252) is a starlink constellation satellite (v2 mini) launched Mar 16, 2024 by SPXS of US. It operates in LEO, CIRCULAR orbit with a mass of 730.00 kg.

Upcoming Passes

Passes for default location (London). Set your location on the main map for personalized predictions.

Altitude History

Loading altitude history...

Two-Line Element Set

1 59252U 24049X 26255.75645750 -.00000600 00000-0 -12285-4 0 9991
2 59252 43.0023 152.5224 0001063 276.4693 83.6038 15.27580685141185
Epoch: Sep 12, 2026 • Age: 11 hours

Current Status

Altitude 482.2 km
Apogee / Perigee N/A
Velocity 7.63 km/s
Sub-Earth Point 12.16°N, 92.72°E
Launch Date Mar 16, 2024
Age 2.4 years
Type internet

Technical Details

Classification Payload
Mass 730.00 kg
Dry Mass 700.00 kg
Total Mass 730.00 kg
Length 0.30 m
Diameter 4.10 m
Span 29.00 m
Shape Box + pan
Manufacturer SPXS
Bus Type Starlink V2M
Phase Status In Orbit
Owner/State SPXS/US

Most Searched